Weather History for KSEP - October, 2014

Change the Weather History Date:

Thursday, October 9, 2014

  Actual Average Record
Temperature  
Mean Temperature 81 °F -  
Max Temperature 91 °F 77 °F 94 °F (1958)
Min Temperature 71 °F 53 °F 35 °F (1952)
Cooling Degree Days 16    
Growing Degree Days 31 (Base 50)    
Moisture  
Dew Point 63 °F    
Average Humidity 59    
Maximum Humidity 85    
Minimum Humidity 30    
Precipitation  
Precipitation 0.00 in - - ()
Sea Level Pressure  
Sea Level Pressure 29.96 in    
Wind  
Wind Speed 10 mph (South)    
Max Wind Speed 18 mph    
Max Gust Speed 24 mph    
Visibility 10 miles    
Events      
Averages and records for this station are not official NWS values.
T = Trace of Precipitation, MM = Missing Value Source: NWS Daily Summary

Daily Weather History Graph

Daily Weather History Graph

Search for Another Location

Airport or City:

Trip Planner

Search our weather history database for the weather conditions in past years. The results will help you decide how hot, cold, wet, or windy it might be!

Date:

Astronomy

Oct. 09, 2014 Rise Set
Actual Time 7:32 AM CDT 7:07 PM CDT
Civil Twilight 7:07 AM CDT 7:31 PM CDT
Nautical Twilight 6:39 AM CDT 8:00 PM CDT
Astronomical Twilight 6:10 AM CDT 8:28 PM CDT
Moon 8:10 PM CDT (10/9) 8:43 AM CDT (10/9)
Length of Visible Light 12h 24m
Length of Day
11h 35m
Full, 98% of the Moon is Illuminated
Oct 9
Full
Oct 15
Last Quarter
Oct 23
New
Oct 30
First Quarter
Nov 6
Full

Hourly Weather History & Observations

Time (CDT) Temp. Heat Index Dew Point Humidity Pressure Visibility Wind Dir Wind Speed Gust Speed Precip Events Conditions
12:15 AM 75.9 °F - 63.0 °F 64% 30.00 in 10.0 mi South 8.1 mph - N/A   Clear
12:35 AM 75.4 °F - 63.5 °F 66% 30.00 in 10.0 mi SSE 6.9 mph - N/A   Clear
12:55 AM 75.4 °F - 64.0 °F 68% 30.00 in 10.0 mi SSE 8.1 mph - N/A   Clear
1:15 AM 75.2 °F - 64.8 °F 70% 29.99 in 10.0 mi SSE 9.2 mph - N/A   Clear
1:35 AM 74.5 °F - 65.3 °F 73% 29.99 in 10.0 mi SSE 8.1 mph - N/A   Clear
1:55 AM 74.5 °F - 65.5 °F 73% 29.99 in 10.0 mi South 8.1 mph - N/A   Clear
2:15 AM 74.1 °F - 65.7 °F 75% 29.99 in 10.0 mi South 8.1 mph - N/A   Clear
2:35 AM 73.4 °F - 66.2 °F 78% 29.99 in 10.0 mi SSE 9.2 mph - N/A   Scattered Clouds
2:55 AM 73.8 °F - 66.2 °F 77% 29.99 in 10.0 mi SSE 10.4 mph - N/A   Scattered Clouds
3:15 AM 73.4 °F - 66.2 °F 78% 29.99 in 10.0 mi SSE 8.1 mph - N/A   Scattered Clouds
3:35 AM 73.0 °F - 66.4 °F 80% 29.99 in 10.0 mi SSE 9.2 mph - N/A   Scattered Clouds
3:55 AM 72.7 °F - 66.6 °F 81% 29.99 in 10.0 mi SSE 8.1 mph - N/A   Scattered Clouds
4:15 AM 72.5 °F - 66.7 °F 82% 29.99 in 10.0 mi South 6.9 mph - N/A   Clear
4:35 AM 71.8 °F - 66.7 °F 84% 29.99 in 10.0 mi South 6.9 mph - N/A   Scattered Clouds
4:55 AM 72.0 °F - 67.1 °F 85% 29.99 in 10.0 mi South 5.8 mph - N/A   Mostly Cloudy
5:15 AM 72.5 °F - 67.5 °F 84% 29.99 in 10.0 mi South 8.1 mph - N/A   Overcast
5:35 AM 72.7 °F - 67.5 °F 84% 29.99 in 10.0 mi SSW 10.4 mph 17.3 mph N/A   Overcast
5:55 AM 74.1 °F - 67.3 °F 79% 29.99 in 10.0 mi South 12.7 mph 18.4 mph N/A   Overcast
6:15 AM 73.9 °F - 67.1 °F 79% 29.98 in 10.0 mi South 8.1 mph 16.1 mph N/A   Mostly Cloudy
6:35 AM 73.4 °F - 67.1 °F 81% 29.99 in 10.0 mi South 6.9 mph - N/A   Scattered Clouds
6:55 AM 73.4 °F - 67.1 °F 81% 29.99 in 10.0 mi SSE 6.9 mph - N/A   Scattered Clouds
7:15 AM 72.7 °F - 67.3 °F 83% 29.99 in 10.0 mi SSE 6.9 mph - N/A   Clear
7:35 AM 72.5 °F - 67.6 °F 85% 29.99 in 10.0 mi SSE 9.2 mph - N/A   Scattered Clouds
7:55 AM 72.9 °F - 68.0 °F 85% 29.99 in 10.0 mi SSE 9.2 mph - N/A   Scattered Clouds
8:15 AM 72.7 °F - 68.0 °F 85% 30.00 in 10.0 mi SSE 8.1 mph - N/A   Clear
8:35 AM 73.6 °F - 68.5 °F 84% 30.00 in 10.0 mi South 8.1 mph - N/A   Scattered Clouds
8:55 AM 74.3 °F - 68.7 °F 83% 30.01 in 10.0 mi South 11.5 mph 17.3 mph N/A   Scattered Clouds
9:15 AM 75.2 °F - 69.8 °F 83% 30.01 in 10.0 mi South 11.5 mph 16.1 mph N/A   Mostly Cloudy
9:35 AM 76.1 °F - 68.5 °F 77% 30.01 in 10.0 mi South 13.8 mph - N/A   Mostly Cloudy
9:55 AM 77.4 °F - 68.2 °F 73% 30.01 in 10.0 mi South 16.1 mph 19.6 mph N/A   Scattered Clouds
10:15 AM 79.2 °F - 67.5 °F 67% 30.02 in 10.0 mi South 15.0 mph 23.0 mph N/A   Mostly Cloudy
10:35 AM 78.8 °F - 67.1 °F 67% 30.02 in 10.0 mi South 10.4 mph 23.0 mph N/A   Mostly Cloudy
10:55 AM 80.2 °F 82.2 °F 65.5 °F 61% 30.02 in 10.0 mi South 15.0 mph 21.9 mph N/A   Scattered Clouds
11:15 AM 82.2 °F 84.2 °F 65.7 °F 57% 30.02 in 10.0 mi SSW 11.5 mph 19.6 mph N/A   Scattered Clouds
11:35 AM 82.0 °F 83.6 °F 64.4 °F 55% 30.01 in 10.0 mi South 18.4 mph 24.2 mph N/A   Scattered Clouds
11:55 AM 84.6 °F 85.9 °F 63.9 °F 50% 30.01 in 10.0 mi SSW 13.8 mph 20.7 mph N/A   Scattered Clouds
12:15 PM 82.9 °F 84.2 °F 63.9 °F 52% 30.00 in 10.0 mi SSW 10.4 mph 19.6 mph N/A   Mostly Cloudy
12:35 PM 86.7 °F 87.0 °F 61.9 °F 43% 29.99 in 10.0 mi South 13.8 mph 23.0 mph N/A   Mostly Cloudy
12:55 PM 85.6 °F 85.9 °F 61.2 °F 44% 29.99 in 10.0 mi SSW 16.1 mph 21.9 mph N/A   Scattered Clouds
1:15 PM 86.0 °F 86.1 °F 60.8 °F 43% 29.98 in 10.0 mi South 13.8 mph 23.0 mph N/A   Scattered Clouds
1:55 PM 89.2 °F 88.4 °F 59.4 °F 36% 29.96 in 10.0 mi South 15.0 mph 19.6 mph N/A   Scattered Clouds
2:15 PM 88.2 °F 87.3 °F 59.0 °F 37% 29.95 in 10.0 mi South 15.0 mph 20.7 mph N/A   Scattered Clouds
2:35 PM 90.7 °F 89.2 °F 57.0 °F 32% 29.94 in 10.0 mi SSW 11.5 mph 20.7 mph N/A   Scattered Clouds
2:55 PM 89.2 °F 87.7 °F 57.0 °F 33% 29.93 in 10.0 mi South 13.8 mph 23.0 mph N/A   Mostly Cloudy
3:15 PM 90.3 °F 88.8 °F 56.3 °F 32% 29.92 in 10.0 mi South 9.2 mph 21.9 mph N/A   Scattered Clouds
3:35 PM 90.7 °F 89.0 °F 55.9 °F 31% 29.91 in 10.0 mi South 9.2 mph 20.7 mph N/A   Mostly Cloudy
3:55 PM 90.9 °F 89.2 °F 56.1 °F 31% 29.90 in 10.0 mi SSE 16.1 mph 20.7 mph N/A   Mostly Cloudy
4:15 PM 90.1 °F 88.3 °F 55.8 °F 31% 29.90 in 10.0 mi South 13.8 mph 17.3 mph N/A   Mostly Cloudy
4:35 PM 90.7 °F 88.7 °F 55.6 °F 30% 29.90 in 10.0 mi South 12.7 mph 19.6 mph N/A   Scattered Clouds
4:55 PM 91.4 °F 89.6 °F 55.6 °F 30% 29.89 in 10.0 mi South 12.7 mph 17.3 mph N/A   Scattered Clouds
5:15 PM 90.5 °F 89.0 °F 56.5 °F 32% 29.89 in 10.0 mi SSE 10.4 mph 19.6 mph N/A   Scattered Clouds
5:35 PM 89.2 °F 87.5 °F 56.1 °F 32% 29.88 in 10.0 mi South 12.7 mph 20.7 mph N/A   Scattered Clouds
5:55 PM 88.9 °F 87.3 °F 56.5 °F 33% 29.88 in 10.0 mi South 9.2 mph 19.6 mph N/A   Scattered Clouds
6:15 PM 88.0 °F 86.7 °F 56.8 °F 35% 29.88 in 10.0 mi South 10.4 mph - N/A   Scattered Clouds
6:35 PM 87.6 °F 86.3 °F 56.5 °F 35% 29.88 in 10.0 mi SSE 13.8 mph 17.3 mph N/A   Clear
6:55 PM 86.4 °F 85.2 °F 57.2 °F 37% 29.88 in 10.0 mi SSE 9.2 mph - N/A   Scattered Clouds
7:15 PM 85.3 °F 84.4 °F 57.4 °F 39% 29.88 in 10.0 mi SSE 8.1 mph - N/A   Scattered Clouds
7:35 PM 84.4 °F 83.8 °F 58.1 °F 41% 29.89 in 10.0 mi SSE 8.1 mph - N/A   Clear
7:55 PM 83.5 °F 83.2 °F 58.6 °F 43% 29.89 in 10.0 mi SSE 8.1 mph - N/A   Clear
8:15 PM 82.8 °F 82.8 °F 59.4 °F 45% 29.89 in 10.0 mi SSE 8.1 mph - N/A   Clear
8:35 PM 81.9 °F 82.2 °F 59.9 °F 47% 29.90 in 10.0 mi South 6.9 mph - N/A   Clear
8:55 PM 81.0 °F 81.6 °F 60.3 °F 49% 29.90 in 10.0 mi SSE 5.8 mph - N/A   Clear
9:15 PM 80.2 °F 81.1 °F 60.8 °F 51% 29.91 in 10.0 mi SSE 5.8 mph - N/A   Clear
9:35 PM 79.9 °F - 61.0 °F 52% 29.91 in 10.0 mi SSE 8.1 mph - N/A   Clear
9:55 PM 79.7 °F - 61.7 °F 54% 29.91 in 10.0 mi SSE 6.9 mph - N/A   Clear
10:15 PM 79.0 °F - 61.7 °F 55% 29.91 in 10.0 mi SSE 9.2 mph - N/A   Clear
10:35 PM 78.8 °F - 62.8 °F 58% 29.91 in 10.0 mi SSE 9.2 mph - N/A   Clear
10:55 PM 78.6 °F - 64.9 °F 63% 29.91 in 10.0 mi SSE 10.4 mph 16.1 mph N/A   Clear
11:15 PM 78.4 °F - 66.2 °F 66% 29.91 in 10.0 mi SSE 11.5 mph 17.3 mph N/A   Clear
11:35 PM 78.8 °F - 66.2 °F 65% 29.91 in 10.0 mi SSE 9.2 mph - N/A   Clear
11:55 PM 77.5 °F - 66.6 °F 69% 29.92 in 10.0 mi SSE 8.1 mph - N/A   Clear